TimeCST,TemperatureF,Dew PointF,Humidity,Sea Level PressureIn,VisibilityMPH,Wind Direction,Wind SpeedMPH,Gust SpeedMPH,PrecipitationIn,Events,Conditions,WindDirDegrees,DateUTC
12:53 AM,30.9,28.9,92,30.37,8.0,Calm,Calm,-,N/A,,Clear,0,2012-11-18 06:53:00
1:53 AM,30.0,28.9,96,30.36,8.0,Calm,Calm,-,N/A,,Clear,0,2012-11-18 07:53:00
2:53 AM,28.9,28.0,96,30.37,7.0,Calm,Calm,-,N/A,,Clear,0,2012-11-18 08:53:00
3:53 AM,28.9,28.0,96,30.34,7.0,Calm,Calm,-,N/A,,Clear,0,2012-11-18 09:53:00
4:53 AM,28.0,26.1,92,30.36,8.0,Calm,Calm,-,N/A,,Clear,0,2012-11-18 10:53:00
5:53 AM,27.0,26.1,96,30.36,7.0,Calm,Calm,-,N/A,,Clear,0,2012-11-18 11:53:00
6:53 AM,28.0,27.0,96,30.37,6.0,Calm,Calm,-,N/A,,Clear,0,2012-11-18 12:53:00
7:53 AM,30.0,30.0,100,30.38,8.0,Calm,Calm,-,N/A,,Clear,0,2012-11-18 13:53:00
8:53 AM,37.9,34.0,86,30.37,10.0,Calm,Calm,-,N/A,,Clear,0,2012-11-18 14:53:00
9:53 AM,46.0,36.0,68,30.38,10.0,Calm,Calm,-,N/A,,Clear,0,2012-11-18 15:53:00
10:53 AM,55.9,37.0,49,30.36,10.0,Calm,Calm,-,N/A,,Clear,0,2012-11-18 16:53:00
11:53 AM,60.1,33.1,36,30.32,10.0,South,4.6,-,N/A,,Clear,190,2012-11-18 17:53:00
12:53 PM,64.0,32.0,30,30.29,10.0,Variable,4.6,-,N/A,,Clear,0,2012-11-18 18:53:00
1:53 PM,64.0,34.0,33,30.28,10.0,Calm,Calm,-,N/A,,Clear,0,2012-11-18 19:53:00
2:53 PM,64.9,34.0,32,30.26,10.0,Variable,4.6,-,N/A,,Clear,0,2012-11-18 20:53:00
3:53 PM,64.0,34.0,33,30.26,10.0,Variable,3.5,-,N/A,,Clear,0,2012-11-18 21:53:00
4:53 PM,59.0,35.1,41,30.27,10.0,Calm,Calm,-,N/A,,Clear,0,2012-11-18 22:53:00
5:53 PM,52.0,37.0,57,30.28,10.0,Calm,Calm,-,N/A,,Clear,0,2012-11-18 23:53:00
6:53 PM,51.1,37.0,59,30.28,10.0,Calm,Calm,-,N/A,,Clear,0,2012-11-19 00:53:00
7:53 PM,52.0,37.9,59,30.29,10.0,Calm,Calm,-,N/A,,Clear,0,2012-11-19 01:53:00
8:53 PM,48.0,37.9,68,30.30,10.0,Calm,Calm,-,N/A,,Clear,0,2012-11-19 02:53:00
9:53 PM,45.0,37.0,74,30.30,10.0,Calm,Calm,-,N/A,,Clear,0,2012-11-19 03:53:00
10:53 PM,45.0,37.9,76,30.27,10.0,Calm,Calm,-,N/A,,Clear,0,2012-11-19 04:53:00
11:53 PM,44.1,37.0,76,30.27,10.0,Calm,Calm,-,N/A,,Scattered Clouds,0,2012-11-19 05:53:00